Simultaneous Nadir Overpasses (SNOs) Predictions

Prediction of SNOs between GOES-16 and METOP-C Satellite Orbit:

Table of predicted SNOs for the next 14.0 days since TLE Epoch: 6/24/2023
Index Date Time (GOES-16) GOES-16 Lat,Lon METOP-C Lat,Lon Distance(km) Time Diff (sec)
1 06/25/2023 14:27:52 -0.01, -75.20 -0.07, -74.81 44.69 80
2 06/27/2023 02:49:33 0.01, -75.21 -0.93, -79.41 478.81 80
3 06/28/2023 02:26:13 0.01, -75.22 0.19, -74.42 91.02 80
4 06/29/2023 14:47:45 -0.01, -75.24 0.81, -78.99 426.85 80
5 06/30/2023 14:24:25 -0.01, -75.25 -0.31, -74.00 143.03 80
6 07/02/2023 02:46:06 0.01, -75.25 -0.72, -78.59 380.07 80
7 07/03/2023 02:22:46 0.02, -75.26 0.40, -73.60 189.75 80
8 07/04/2023 14:44:16 -0.02, -75.28 0.65, -78.15 328.17 80
9 07/05/2023 14:20:57 -0.03, -75.29 -0.47, -73.16 241.94 80
10 07/07/2023 02:42:37 0.03, -75.31 -0.53, -77.76 280.01 80
